Preview of NWS' New Version of Forecast
This preview is not operational and should not be used for support decisions.

Regional Weather Roundup (RWR)

Issued by National Weather Service (NWS)

                            
000
ASPQ40 PGUM 270310
RWRPQ 
WEATHER ROUNDUP FOR THE MARIANAS AND MICRONESIA
NATIONAL WEATHER SERVICE TIYAN GU
100 PM CHST THU JUN 27 2019

GUZ001>004-270400-
MARIANA ISLANDS-
  
CITY           SKY/WX    TMP DP  RH WIND       PRES   REMARKS
GUAM AIRPORT   MOSUNNY   88  75  66 E16G22    29.84F HX  97           
ANDERSEN AFB   PTSUNNY   88  75  66 E14       29.85F HX  97           
ROTA AIRPORT   MOSUNNY   86  73  66 E15       29.84F HX  93           
TINIAN AP      MOSUNNY   90  77  66 E17       29.82F HX 102           
SAIPAN AP      MOSUNNY   90  75  62 E13       29.84F HX 100           

$$

PMZ161-270400-
REPUBLIC OF PALAU-
  
CITY           SKY/WX    TMP DP  RH WIND       PRES   REMARKS
KOROR AP       NOT AVBL                                               
KOROR WSO      NOT AVBL                                               

$$

PMZ171>174-270400-
FEDERATED STATES OF MICRONESIA-
  
CITY           SKY/WX    TMP DP  RH WIND       PRES   REMARKS
YAP AIRPORT    CLOUDY    82  79  89 S8        29.76F HX  93           
CHUUK AP       CLOUDY    88  77  70 NE7       29.76F HX 100           
POHNPEI AP     PTSUNNY   88  77  70 E8        29.77F HX 100           
POHNPEI WSO    PTSUNNY   88  79  74 W5        29.79F HX 102           
KOSRAE AP      NOT AVBL                                               

$$

PMZ181-270400-
REPUBLIC OF THE MARSHALL ISLANDS-
  
CITY           SKY/WX    TMP DP  RH WIND       PRES   REMARKS
KWAJALEIN AP   SUNNY     86  77  74 N10       29.73F HX  97           
MAJURO AP      NOT AVBL                                               
MAJURO WSO     MOSUNNY   84  77  79 E10       29.73F HX  94           

$$